Weather reports worldwide

Advertisment
Trieste, Italy (16110): temperature & dewpoint: 08.07.2020 12:00:00 - 14.07.2020 12:00:00 (CEST)Trieste, Italy (16110): wind speed: 08.07.2020 12:00:00 - 14.07.2020 12:00:00 (CEST)Trieste, Italy (16110): wind direction: 08.07.2020 12:00:00 - 14.07.2020 12:00:00 (CEST)Trieste, Italy (16110): reduced air pressure: 08.07.2020 12:00:00 - 14.07.2020 12:00:00 (CEST)Trieste, Italy (16110): visibility: 08.07.2020 12:00:00 - 14.07.2020 12:00:00 (CEST)Trieste, Italy (16110): sunshine duration: 08.07.2020 12:00:00 - 14.07.2020 12:00:00 (CEST)
Date & Time tt [°C] td [°C] ff [km/h] ff [kn] dd ppp [hPa] vv [km] sd [min]
14.07.2020 12:00:00 - - - - - - - -
14.07.2020 11:00:00 24,2 10,1 11 6 W 1016,1 20 60
14.07.2020 10:00:00 23,4 11,5 8 4 NW 1016,5 20 60
14.07.2020 09:00:00 22,2 11,3 4 2 E 1016,5 20 60
14.07.2020 08:00:00 20,2 10,3 11 6 ENE 1016,7 20 60
14.07.2020 07:00:00 17,8 9,9 9 5 ENE 1016,9 20 -
14.07.2020 06:00:00 17,2 9,6 5 3 ENE 1016,9 20 -
14.07.2020 05:00:00 17,2 9,9 8 4 NE 1017,1 20 -
14.07.2020 04:00:00 16,8 10,2 4 2 NE 1017,3 20 -
14.07.2020 03:00:00 18,0 10,4 0 0 N 1017,8 20 -
14.07.2020 02:00:00 17,8 9,9 2 1 NNE 1017,8 20 -
14.07.2020 01:00:00 18,4 9,2 4 2 NE 1017,9 20 -
14.07.2020 00:00:00 20,4 9,3 4 2 ENE 1017,9 20 -
13.07.2020 23:00:00 20,6 9,5 9 5 NE 1017,7 20 -
13.07.2020 22:00:00 20,8 8,8 2 1 NE 1017,7 20 -
13.07.2020 21:00:00 23,0 7,9 5 3 ENE 1017,4 20 18
13.07.2020 20:00:00 24,8 8,3 9 5 NE 1017,0 20 60
13.07.2020 19:00:00 25,4 8,8 8 4 ENE 1017,1 20 60
13.07.2020 18:00:00 26,0 8,9 11 6 NE 1017,3 20 60
13.07.2020 17:00:00 26,2 9,1 8 4 NE 1017,8 20 60
13.07.2020 16:00:00 26,2 9,1 9 5 NE 1018,5 20 60
13.07.2020 15:00:00 26,2 9,1 11 6 NE 1018,6 20 60
13.07.2020 14:00:00 25,8 9,2 13 7 E 1019,5 20 60
13.07.2020 13:00:00 24,8 8,7 15 8 ENE 1020,1 20 60
13.07.2020 12:00:00 24,2 9,0 15 8 NE 1020,6 20 60
13.07.2020 11:00:00 23,6 8,9 16 9 NE 1020,9 20 60
13.07.2020 10:00:00 22,6 9,4 22 12 NE 1021,2 20 60
13.07.2020 09:00:00 21,2 9,1 22 12 ENE 1021,3 20 60
13.07.2020 08:00:00 20,2 8,9 8 4 E 1021,6 20 60
13.07.2020 07:00:00 19,2 8,2 2 1 WNW 1020,3 20 24
13.07.2020 06:00:00 19,2 7,6 15 8 NE 1021,4 20 -
13.07.2020 05:00:00 19,4 7,8 11 6 ENE 1021,4 20 -
13.07.2020 04:00:00 19,6 7,7 4 2 E 1021,6 20 -
13.07.2020 03:00:00 20,0 7,4 9 5 ENE 1021,8 20 -
13.07.2020 02:00:00 20,4 7,4 13 7 NNE 1021,8 20 -
13.07.2020 01:00:00 20,4 7,1 11 6 NE 1021,9 20 -
13.07.2020 00:00:00 21,0 7,2 11 6 SE 1022,0 20 -
12.07.2020 23:00:00 21,4 7,2 8 4 NE 1021,8 20 -
12.07.2020 22:00:00 22,0 7,8 8 4 NNW 1021,6 20 -
12.07.2020 21:00:00 22,6 8,3 8 4 NE 1022,0 20 -
12.07.2020 20:00:00 24,2 9,0 9 5 NE 1020,5 20 60
12.07.2020 19:00:00 25,0 9,7 4 2 ENE 1020,3 20 60
12.07.2020 18:00:00 26,0 10,2 5 3 NNE 1020,6 20 60
12.07.2020 17:00:00 26,2 10,8 8 4 E 1020,5 20 60
12.07.2020 16:00:00 25,6 11,0 9 5 ENE 1020,6 20 60
12.07.2020 15:00:00 25,2 11,0 8 4 N - 20 60
12.07.2020 14:00:00 25,0 11,6 13 7 NNE 1020,6 20 60
12.07.2020 13:00:00 24,4 11,0 11 6 ENE 1020,8 20 60
12.07.2020 12:00:00 23,8 10,8 21 11 NE 1020,4 20 60
12.07.2020 11:00:00 23,0 11,4 22 12 W 1020,2 20 60
12.07.2020 10:00:00 22,0 12,5 22 12 W 1020,2 20 60
12.07.2020 09:00:00 21,0 12,7 21 11 NE 1019,9 20 60
12.07.2020 08:00:00 20,2 12,7 37 20 NE 1019,5 20 54
12.07.2020 07:00:00 19,6 13,1 37 20 NE 1019,1 20 0
12.07.2020 06:00:00 20,2 14,1 31 17 NE 1018,3 20 -
12.07.2020 05:00:00 19,4 13,4 37 20 NE 1017,8 20 -
12.07.2020 04:00:00 20,0 13,7 39 21 NE 1017,1 20 -
12.07.2020 03:00:00 20,2 13,4 34 18 NE 1017,2 20 -
12.07.2020 02:00:00 20,4 13,6 34 18 NE 1017,2 20 -
12.07.2020 01:00:00 20,0 13,2 28 15 NE 1017,2 20 -
12.07.2020 00:00:00 20,2 14,5 0 0 N 1017,2 20 -
11.07.2020 23:00:00 20,0 15,0 35 19 NNE 1016,2 20 -
11.07.2020 22:00:00 20,0 15,4 37 20 NE 1015,8 20 -
11.07.2020 21:00:00 19,0 15,5 0 0 N 1015,1 20 0
11.07.2020 20:00:00 19,8 19,8 21 11 NNE 1017,4 1,5 0
11.07.2020 19:00:00 26,6 18,7 15 8 NNE 1013,3 20 0
11.07.2020 18:00:00 27,0 23,9 0 0 N 1012,9 20 42
11.07.2020 17:00:00 28,0 22,9 0 0 N 1012,9 20 36
11.07.2020 16:00:00 27,0 22,6 0 0 N 1012,9 20 30
11.07.2020 15:00:00 26,8 20,9 0 0 N 1012,7 20 30
11.07.2020 14:00:00 27,6 20,7 0 0 N 1012,7 20 36
11.07.2020 13:00:00 27,8 21,6 0 0 N 1012,7 20 0
11.07.2020 12:00:00 27,4 20,7 0 0 N 1012,7 20 42
11.07.2020 11:00:00 26,6 22,9 0 0 N 1012,7 20 30
11.07.2020 10:00:00 25,6 21,7 0 0 N 1012,7 20 42
11.07.2020 09:00:00 25,0 21,3 0 0 N 1012,6 20 12
11.07.2020 08:00:00 23,4 20,5 0 0 N 1012,2 20 18
11.07.2020 07:00:00 22,4 18,6 0 0 N 1012,5 20 -
11.07.2020 06:00:00 21,2 18,6 0 0 N 1012,5 10 -
11.07.2020 05:00:00 21,2 17,0 0 0 N 1013,4 20 -
11.07.2020 04:00:00 21,6 18,2 0 0 N 1013,4 20 -
11.07.2020 03:00:00 21,6 18,6 0 0 N 1013,9 20 -
11.07.2020 02:00:00 22,0 20,3 0 0 N 1013,7 20 -
11.07.2020 01:00:00 22,2 19,0 0 0 N 1013,4 20 -
11.07.2020 00:00:00 22,6 20,1 4 2 NE 1013,3 20 -
10.07.2020 23:00:00 23,0 16,8 4 2 NE 1013,2 20 -
10.07.2020 22:00:00 23,8 17,5 0 0 N 1012,9 20 -
10.07.2020 21:00:00 25,2 20,2 0 0 N 1013,0 20 30
10.07.2020 20:00:00 26,4 22,7 0 0 N 1013,0 20 -
10.07.2020 19:00:00 26,6 21,8 0 0 N 1013,4 20 60
10.07.2020 18:00:00 27,0 22,6 0 0 N 1013,4 20 60
10.07.2020 17:00:00 27,2 22,2 0 0 N 1014,4 20 60
10.07.2020 16:00:00 27,4 21,7 4 2 W 1014,8 20 60
10.07.2020 15:00:00 27,2 22,2 0 0 N 1015,0 20 60
10.07.2020 14:00:00 28,2 20,5 4 2 WSW 1015,4 20 60
10.07.2020 13:00:00 25,4 19,5 0 0 N 1015,4 20 60
10.07.2020 12:00:00 25,6 20,2 4 2 W 1015,4 20 60
10.07.2020 11:00:00 24,8 19,6 0 0 N 1015,4 20 60
10.07.2020 10:00:00 24,0 19,7 0 0 N 1015,4 20 60
10.07.2020 09:00:00 24,0 18,9 0 0 N 1015,3 20 60
10.07.2020 08:00:00 23,0 18,3 0 0 N 1015,2 20 60
10.07.2020 07:00:00 19,8 17,6 2 1 NE 1015,1 20 24
10.07.2020 06:00:00 19,4 16,8 0 0 N 1015,2 20 -
10.07.2020 05:00:00 20,0 18,0 4 2 NE 1015,2 20 -
10.07.2020 04:00:00 20,0 18,3 4 2 NE 1015,4 20 -
10.07.2020 03:00:00 20,4 17,8 4 2 NE 1015,6 20 -
10.07.2020 02:00:00 21,0 17,6 4 2 NE 1015,6 20 -
10.07.2020 01:00:00 21,8 14,9 0 0 N 1015,6 20 -
10.07.2020 00:00:00 22,0 14,6 2 1 ENE 1015,6 20 -
09.07.2020 23:00:00 23,0 14,8 0 0 N 1015,6 20 -
09.07.2020 22:00:00 23,0 15,3 2 1 NE 1015,6 20 -
09.07.2020 21:00:00 25,0 19,2 0 0 N 1015,4 20 6
09.07.2020 20:00:00 26,0 23,1 0 0 N 1015,3 20 60
09.07.2020 19:00:00 26,8 23,1 2 1 WSW 1015,6 20 60
09.07.2020 18:00:00 26,6 22,4 4 2 WSW 1015,7 20 60
09.07.2020 17:00:00 27,2 20,3 2 1 WSW 1016,2 20 60
09.07.2020 16:00:00 26,0 22,3 4 2 W 1016,5 20 60
09.07.2020 15:00:00 26,0 18,9 0 0 N 1016,6 20 60
09.07.2020 14:00:00 26,4 16,9 0 0 N 1016,7 20 60
09.07.2020 13:00:00 24,6 16,3 0 0 N 1017,0 20 60
09.07.2020 12:00:00 24,8 17,8 0 0 N 1017,1 20 60
09.07.2020 11:00:00 23,2 17,2 0 0 N 1017,2 20 60
09.07.2020 10:00:00 22,2 17,8 0 0 N 1017,4 20 60
09.07.2020 09:00:00 21,2 16,6 0 0 N 1017,3 20 60
09.07.2020 08:00:00 21,0 17,0 0 0 N 1016,8 20 60
09.07.2020 07:00:00 17,6 15,4 0 0 N 1016,7 20 18
09.07.2020 06:00:00 17,6 15,2 0 0 N 1016,7 20 -
09.07.2020 05:00:00 18,0 14,5 0 0 N 1016,6 20 -
09.07.2020 04:00:00 18,2 15,3 0 0 N 1016,4 20 -
09.07.2020 03:00:00 18,4 16,0 0 0 N 1016,4 20 -
09.07.2020 02:00:00 18,8 16,0 0 0 N 1016,4 20 -
09.07.2020 01:00:00 19,4 16,4 0 0 N 1016,5 20 -
09.07.2020 00:00:00 19,6 17,5 0 0 N 1016,4 20 -
08.07.2020 23:00:00 20,2 16,7 2 1 NE 1016,4 20 -
08.07.2020 22:00:00 20,6 16,8 5 3 NE 1016,3 20 -
08.07.2020 21:00:00 21,8 19,2 2 1 NNE 1016,0 20 6
08.07.2020 20:00:00 24,2 20,9 0 0 N 1015,7 20 60
08.07.2020 19:00:00 24,8 20,7 2 1 W 1015,8 20 60
08.07.2020 18:00:00 25,0 20,0 4 2 WSW 1016,1 20 60
08.07.2020 17:00:00 26,0 20,1 4 2 W 1016,5 20 60
08.07.2020 16:00:00 26,0 18,7 2 1 W 1016,8 20 60
08.07.2020 15:00:00 25,6 17,8 4 2 W 1017,3 20 60
08.07.2020 14:00:00 25,0 15,6 2 1 W 1017,4 20 60
08.07.2020 13:00:00 23,8 14,8 4 2 WNW 1017,5 20 60
08.07.2020 12:00:00 23,6 15,9 0 0 N 1017,6 20 60

tt = temperature
td = dewpoint
ff = wind speed
dd = wind direction
ppp = reduced air pressure
vv = visibility
sd = sunshine duration

Next stations